TimeCDT,TemperatureF,Dew PointF,Humidity,Sea Level PressureIn,VisibilityMPH,Wind Direction,Wind SpeedMPH,Gust SpeedMPH,PrecipitationIn,Events,Conditions,WindDirDegrees,DateUTC
12:15 AM,78.8,69.8,74,30.01,10.0,South,16.1,21.9,N/A,,Clear,190,2013-08-25 05:15:00
12:35 AM,78.8,69.8,74,30.01,10.0,South,15.0,20.7,N/A,,Clear,190,2013-08-25 05:35:00
12:55 AM,78.8,69.8,74,30.02,10.0,South,13.8,21.9,N/A,,Clear,190,2013-08-25 05:55:00
1:15 AM,78.8,69.8,74,30.02,10.0,South,13.8,20.7,N/A,,Clear,190,2013-08-25 06:15:00
1:35 AM,78.8,69.8,74,30.02,10.0,South,12.7,19.6,N/A,,Clear,190,2013-08-25 06:35:00
1:55 AM,78.8,69.8,74,30.02,10.0,South,11.5,-,N/A,,Clear,190,2013-08-25 06:55:00
2:15 AM,78.8,69.8,74,30.02,10.0,South,12.7,-,N/A,,Clear,190,2013-08-25 07:15:00
2:35 AM,78.8,69.8,74,30.03,10.0,South,12.7,18.4,N/A,,Clear,190,2013-08-25 07:35:00
2:55 AM,78.8,69.8,74,30.04,10.0,South,10.4,-,N/A,,Clear,190,2013-08-25 07:55:00
3:15 AM,77.0,69.8,78,30.04,10.0,South,11.5,18.4,N/A,,Clear,190,2013-08-25 08:15:00
3:35 AM,77.0,69.8,78,30.04,10.0,South,12.7,17.3,N/A,,Clear,190,2013-08-25 08:35:00
3:55 AM,77.0,68.0,74,30.04,10.0,South,13.8,18.4,N/A,,Clear,190,2013-08-25 08:55:00
4:15 AM,77.0,68.0,74,30.05,10.0,South,13.8,19.6,N/A,,Clear,190,2013-08-25 09:15:00
4:35 AM,75.2,66.2,73,30.05,10.0,South,12.7,-,N/A,,Clear,190,2013-08-25 09:35:00
4:55 AM,75.2,66.2,73,30.05,10.0,South,12.7,-,N/A,,Clear,190,2013-08-25 09:55:00
5:15 AM,75.2,66.2,73,30.05,10.0,South,12.7,-,N/A,,Clear,190,2013-08-25 10:15:00
5:35 AM,75.2,66.2,73,30.04,10.0,South,15.0,-,N/A,,Clear,190,2013-08-25 10:35:00
5:55 AM,75.2,66.2,73,30.04,10.0,South,15.0,19.6,N/A,,Clear,190,2013-08-25 10:55:00
6:15 AM,73.4,66.2,78,30.05,10.0,South,11.5,-,N/A,,Clear,180,2013-08-25 11:15:00
6:35 AM,73.4,66.2,78,30.05,10.0,South,12.7,-,N/A,,Clear,190,2013-08-25 11:35:00
6:55 AM,73.4,66.2,78,30.05,10.0,South,15.0,-,N/A,,Clear,190,2013-08-25 11:55:00
7:15 AM,73.4,66.2,78,30.06,10.0,South,12.7,17.3,N/A,,Clear,190,2013-08-25 12:15:00
7:35 AM,75.2,66.2,73,30.06,10.0,South,12.7,-,N/A,,Clear,190,2013-08-25 12:35:00
7:55 AM,75.2,66.2,73,30.06,10.0,South,13.8,-,N/A,,Clear,190,2013-08-25 12:55:00
8:15 AM,77.0,66.2,69,30.06,10.0,South,15.0,19.6,N/A,,Clear,190,2013-08-25 13:15:00
8:35 AM,78.8,69.8,74,30.06,10.0,South,15.0,-,N/A,,Clear,190,2013-08-25 13:35:00
8:55 AM,78.8,69.8,74,30.05,10.0,South,15.0,23.0,N/A,,Clear,190,2013-08-25 13:55:00
9:15 AM,78.8,69.8,74,30.05,10.0,South,16.1,20.7,N/A,,Clear,190,2013-08-25 14:15:00
9:35 AM,78.8,69.8,74,30.04,10.0,South,20.7,27.6,N/A,,Clear,190,2013-08-25 14:35:00
9:55 AM,80.6,68.0,65,30.05,10.0,South,18.4,25.3,N/A,,Clear,190,2013-08-25 14:55:00
10:15 AM,80.6,68.0,65,30.05,10.0,South,18.4,25.3,N/A,,Clear,190,2013-08-25 15:15:00
10:35 AM,80.6,69.8,70,30.05,10.0,South,18.4,23.0,N/A,,Clear,190,2013-08-25 15:35:00
10:55 AM,82.4,69.8,66,30.05,10.0,South,18.4,26.5,N/A,,Clear,190,2013-08-25 15:55:00
11:15 AM,82.4,69.8,66,30.04,10.0,South,13.8,25.3,N/A,,Clear,190,2013-08-25 16:15:00
11:35 AM,84.2,69.8,62,30.05,10.0,SSW,18.4,26.5,N/A,,Clear,200,2013-08-25 16:35:00
11:55 AM,84.2,69.8,62,30.04,10.0,SSW,17.3,24.2,N/A,,Clear,200,2013-08-25 16:55:00
12:15 PM,86.0,69.8,58,30.04,10.0,SSW,18.4,25.3,N/A,,Clear,200,2013-08-25 17:15:00
12:35 PM,86.0,69.8,58,30.03,10.0,South,18.4,24.2,N/A,,Clear,190,2013-08-25 17:35:00
12:55 PM,87.8,71.6,58,30.03,10.0,SSW,16.1,25.3,N/A,,Clear,200,2013-08-25 17:55:00
1:15 PM,87.8,69.8,55,30.03,10.0,SSW,18.4,23.0,N/A,,Clear,200,2013-08-25 18:15:00
1:35 PM,87.8,69.8,55,30.02,10.0,South,17.3,25.3,N/A,,Clear,190,2013-08-25 18:35:00
1:55 PM,87.8,71.6,58,30.02,10.0,SSW,19.6,-,N/A,,Clear,200,2013-08-25 18:55:00
2:15 PM,89.6,71.6,55,30.02,10.0,South,19.6,24.2,N/A,,Clear,190,2013-08-25 19:15:00
2:35 PM,87.8,71.6,58,30.02,10.0,SSW,16.1,25.3,N/A,,Clear,200,2013-08-25 19:35:00
2:55 PM,89.6,71.6,55,30.01,10.0,SSW,18.4,23.0,N/A,,Clear,200,2013-08-25 19:55:00
3:15 PM,89.6,71.6,55,30.01,10.0,SSW,21.9,-,N/A,,Clear,200,2013-08-25 20:15:00
3:35 PM,89.6,71.6,55,30.01,10.0,SSW,12.7,23.0,N/A,,Clear,200,2013-08-25 20:35:00
3:55 PM,89.6,71.6,55,30.01,10.0,SSW,15.0,-,N/A,,Clear,200,2013-08-25 20:55:00
4:15 PM,89.6,71.6,55,30.01,10.0,SSW,15.0,23.0,N/A,,Clear,200,2013-08-25 21:15:00
4:35 PM,89.6,73.4,59,30.01,10.0,South,12.7,-,N/A,,Clear,190,2013-08-25 21:35:00
4:55 PM,89.6,71.6,55,30.01,10.0,SSW,17.3,-,N/A,,Clear,200,2013-08-25 21:55:00
5:15 PM,89.6,71.6,55,30.01,10.0,SSW,15.0,21.9,N/A,,Clear,200,2013-08-25 22:15:00
5:35 PM,89.6,71.6,55,30.01,10.0,South,16.1,20.7,N/A,,Clear,190,2013-08-25 22:35:00
5:55 PM,89.6,73.4,59,30.01,10.0,SSW,12.7,-,N/A,,Clear,200,2013-08-25 22:55:00
6:15 PM,89.6,73.4,59,30.01,10.0,South,11.5,-,N/A,,Clear,190,2013-08-25 23:15:00
6:35 PM,89.6,73.4,59,30.01,10.0,South,11.5,-,N/A,,Clear,190,2013-08-25 23:35:00
6:55 PM,87.8,73.4,62,30.01,10.0,South,9.2,-,N/A,,Clear,190,2013-08-25 23:55:00
7:15 PM,86.0,73.4,66,30.01,10.0,South,10.4,-,N/A,,Clear,190,2013-08-26 00:15:00
7:35 PM,84.2,73.4,70,30.01,10.0,South,9.2,-,N/A,,Clear,190,2013-08-26 00:35:00
7:55 PM,84.2,75.2,74,30.01,10.0,South,6.9,-,N/A,,Clear,190,2013-08-26 00:55:00
8:15 PM,82.4,73.4,74,30.01,10.0,South,6.9,-,N/A,,Clear,190,2013-08-26 01:15:00
8:35 PM,82.4,73.4,74,30.01,10.0,South,8.1,-,N/A,,Clear,190,2013-08-26 01:35:00
8:55 PM,82.4,73.4,74,30.02,10.0,South,6.9,-,N/A,,Clear,190,2013-08-26 01:55:00
9:15 PM,80.6,71.6,74,30.02,10.0,South,9.2,-,N/A,,Clear,190,2013-08-26 02:15:00
9:35 PM,80.6,71.6,74,30.03,10.0,South,8.1,-,N/A,,Clear,190,2013-08-26 02:35:00
9:55 PM,80.6,71.6,74,30.04,10.0,South,8.1,-,N/A,,Clear,180,2013-08-26 02:55:00
10:15 PM,80.6,71.6,74,30.04,10.0,South,9.2,-,N/A,,Clear,180,2013-08-26 03:15:00
10:35 PM,78.8,69.8,74,30.04,10.0,South,6.9,-,N/A,,Clear,180,2013-08-26 03:35:00
10:55 PM,78.8,71.6,78,30.04,10.0,South,9.2,-,N/A,,Clear,180,2013-08-26 03:55:00
11:15 PM,78.8,71.6,78,30.04,10.0,South,9.2,-,N/A,,Clear,190,2013-08-26 04:15:00
11:35 PM,78.8,71.6,78,30.04,10.0,South,10.4,-,N/A,,Clear,190,2013-08-26 04:35:00
11:55 PM,78.8,71.6,78,30.05,10.0,South,9.2,-,N/A,,Clear,190,2013-08-26 04:55:00